Jackson, MI

3:35 AM EDT on October 15, 2019 (GMT -0400)
Jackson County-Reynolds

Weather History for KJXN - September, 2019

Change the Weather History Date:

Wednesday, September 18, 2019

  Actual Average Record
Temperature  
Mean Temperature 66 °F 61 °F  
Max Temperature 80 °F 72 °F 92 °F (1955)
Min Temperature 51 °F 50 °F 36 °F (1956)
Degree Days  
Heating Degree Days 0 6  
Month to date heating degree days 16 60  
Since 1 July heating degree days 29 95  
Cooling Degree Days 0 2  
Month to date cooling degree days 55 47  
Year to date cooling degree days 614 576  
Growing Degree Days 16 (Base 50)    
Moisture  
Dew Point 55 °F    
Average Humidity 74    
Maximum Humidity 96    
Minimum Humidity 45    
Precipitation  
Precipitation 0.00 in 0.12 in 1.99 in (1949)
Month to date precipitation 2.58 2.06  
Year to date precipitation 24.49 22.98  
Sea Level Pressure  
Sea Level Pressure 30.18 in    
Wind  
Wind Speed 4 mph ()    
Max Wind Speed 14 mph    
Max Gust Speed 20 mph    
Visibility 7.4 miles    
Events Fog    
T = Trace of Precipitation, MM = Missing Value Source: Averaged Metar Reports

Daily Weather History Graph

Daily Weather History Graph

Search for Another Location

Airport or City:

Astronomy

Sep. 18, 2019 Rise Set
Actual Time 7:20 AM EDT 7:42 PM EDT
Civil Twilight 6:52 AM EDT 8:10 PM EDT
Nautical Twilight 6:19 AM EDT 8:43 PM EDT
Astronomical Twilight 5:45 AM EDT 9:17 PM EDT
Moon 10:11 PM EDT (9/18) 11:27 AM EDT (9/18)
Length of Visible Light 13h 17m
Length of Day
12h 21m
Waning Gibbous, 82% of the Moon is Illuminated
Sep 18
Waning Gibbous
Sep 21
Last Quarter
Sep 28
New
Oct 5
First Quarter
Oct 13
Full

Hourly Weather History & Observations

Time (EDT) Temp. Heat Index Dew Point Humidity Pressure Visibility Wind Dir Wind Speed Gust Speed Precip Events Conditions
12:56 AM 61.0 °F - 57.9 °F 90% 30.18 in 9.0 mi East 3.5 mph - N/A   Clear
1:45 AM 59.0 °F - 57.0 °F 93% 30.19 in 1.2 mi NE 3.5 mph - N/A   Clear
1:56 AM 57.9 °F - 55.9 °F 93% 30.19 in 1.0 mi Calm Calm - N/A   Clear
2:04 AM 57.9 °F - 55.9 °F 93% 30.19 in 0.2 mi NE 3.5 mph - N/A Fog Fog
2:13 AM 57.9 °F - 55.9 °F 93% 30.19 in 0.5 mi NE 3.5 mph - N/A Fog Fog
2:23 AM 57.0 °F - 55.9 °F 96% 30.19 in 2.0 mi NE 4.6 mph - N/A   Clear
2:31 AM 57.0 °F - 55.0 °F 93% 30.19 in 0.8 mi NE 3.5 mph - N/A   Clear
2:52 AM 57.2 °F - 55.4 °F 94% 30.19 in 1.5 mi Calm Calm - N/A   Clear
2:56 AM 57.0 °F - 55.0 °F 93% 30.18 in 1.2 mi Calm Calm - N/A   Clear
3:09 AM 57.0 °F - 55.0 °F 93% 30.19 in 3.0 mi ENE 3.5 mph - N/A   Clear
3:56 AM 57.9 °F - 54.0 °F 87% 30.18 in 10.0 mi ENE 5.8 mph - N/A   Clear
4:56 AM 57.0 °F - 53.1 °F 87% 30.17 in 10.0 mi NE 3.5 mph - N/A   Clear
5:56 AM 55.0 °F - 52.0 °F 89% 30.18 in 10.0 mi Calm Calm - N/A   Clear
6:56 AM 55.0 °F - 52.0 °F 89% 30.17 in 10.0 mi Calm Calm - N/A   Clear
7:56 AM 55.0 °F - 53.1 °F 93% 30.18 in 10.0 mi Calm Calm - N/A   Clear
8:56 AM 63.0 °F - 57.9 °F 84% 30.19 in 10.0 mi East 6.9 mph - N/A   Clear
9:56 AM 66.9 °F - 60.1 °F 79% 30.19 in 10.0 mi East 9.2 mph - N/A   Clear
10:56 AM 71.1 °F - 60.1 °F 68% 30.19 in 10.0 mi ESE 5.8 mph - N/A   Clear
11:56 AM 75.0 °F - 57.9 °F 55% 30.20 in 10.0 mi Variable 6.9 mph 16.1 mph N/A   Clear
12:56 PM 77.0 °F - 55.0 °F 47% 30.20 in 10.0 mi SE 10.4 mph - N/A   Clear
1:56 PM 78.1 °F - 55.9 °F 46% 30.20 in 10.0 mi ESE 6.9 mph - N/A   Clear
2:56 PM 79.0 °F - 57.0 °F 47% 30.19 in 10.0 mi ESE 8.1 mph - N/A   Clear
3:56 PM 80.1 °F 80.4 °F 57.0 °F 45% 30.17 in 10.0 mi ESE 9.2 mph - N/A   Clear
4:56 PM 79.0 °F - 55.9 °F 45% 30.17 in 10.0 mi East 6.9 mph - N/A   Clear
5:56 PM 77.0 °F - 55.0 °F 47% 30.16 in 10.0 mi East 8.1 mph - N/A   Clear
6:56 PM 73.9 °F - 53.1 °F 48% 30.15 in 10.0 mi East 10.4 mph - N/A   Clear
7:56 PM 70.0 °F - 51.1 °F 51% 30.17 in 10.0 mi East 8.1 mph - N/A   Clear
8:56 PM 68.0 °F - 51.1 °F 55% 30.17 in 10.0 mi East 9.2 mph - N/A   Clear
9:56 PM 64.9 °F - 52.0 °F 63% 30.17 in 10.0 mi East 8.1 mph - N/A   Clear
10:56 PM 64.0 °F - 54.0 °F 70% 30.17 in 10.0 mi East 8.1 mph - N/A   Clear
11:56 PM 63.0 °F - 55.0 °F 75% 30.16 in 10.0 mi East 8.1 mph - N/A   Clear